Weather in Eldoret

Kenya     0°30′24″N   35°16′23″E
temp.,
°C
wind,
m/s
gust,
m/s
humid.,
%
clouds,
%
prec.,
mm/h
press.,
hPa
HPBL,
m
13 may, thu
thu1300:00+13e2291100 0.0 101829
03:00+14ese2290100 0.0 101620
06:00+13e229082 0.0 101726
09:00+17e227890 0.0 1018432
12:00+21n116291 0.9 10151269
15:00+20wnw3274100 5.8 1012796
18:00+16wnw1290100 8.0 101439
21:00+15ene2295100 15.9 101676
14 may, fri
fri1400:00+15ese4794100 6.3 1017194
03:00+14e2289100 6.8 101548
06:00+14e2286100 0.1 101625
09:00+18e237575 0.1 1017390
12:00+21ne336614 0.3 10151195
15:00+21ene447089 3.9 10121078
18:00+17ene3487100 2.8 1014102
21:00+15e118996 3.0 101611
15 may, sat
sat1500:00+14ese1288100 0.0 101612
03:00+13sse2291100 0.0 101516
06:00+13e119077 0.0 101611
09:00+18ne237561 0.0 1017497
12:00+22ne335717 0.0 10141595
15:00+22ene435459 0.0 10111624
18:00+18nw128126 0.8 101366
21:00+14s119315 1.2 101712
16 may, sun
sun1600:00+13sse229317 0.2 101721
03:00+13se119172 0.2 101511
06:00+14ne11876 0.0 101611
09:00+18nne23765 0.0 1016495
12:00+22nne23568 0.1 10141630
15:00+22w115877 0.6 10111453
18:00+17wnw238912 3.1 1014149
21:00+15nnw129396 4.6 101643
17 may, mon
mon1700:00+14sse229183 0.1 101619
03:00+13ese118943 0.1 101611
06:00+13ene118896 0.0 101610
09:00+18ne347625 0.0 1017591
12:00+21ne336760 0.6 10151329
15:00+21ne336916 3.4 10121078
18:00+17nne238698 6.3 101460
21:00+16wnw1186100 9.4 101616